Time,TemperatureF,DewpointF,PressureIn,WindDirection,WindDirectionDegrees,WindSpeedMPH,WindSpeedGustMPH,Humidity,HourlyPrecipIn,Conditions,Clouds,dailyrainin,SolarRadiationWatts/m^2,SoftwareType,DateUTC
2013-01-19 00:01:00,35.4,27.6,29.93,WSW,244,3.0,0.0,73,0.00,,,0.00,0,WeatherTracker,2013-01-19 06:01:00,
2013-01-19 00:06:00,35.4,27.6,29.93,WSW,244,2.0,0.0,73,0.00,,,0.00,0,WeatherTracker,2013-01-19 06:06:00,
2013-01-19 00:11:00,35.4,27.6,29.93,WSW,244,3.0,0.0,73,0.00,,,0.00,0,WeatherTracker,2013-01-19 06:11:00,
2013-01-19 00:16:00,35.6,27.5,29.93,WSW,244,3.0,0.0,72,0.00,,,0.00,0,WeatherTracker,2013-01-19 06:16:00,
2013-01-19 00:21:00,35.4,27.6,29.93,WSW,244,2.0,0.0,73,0.00,,,0.00,0,WeatherTracker,2013-01-19 06:21:00,
2013-01-19 00:26:00,35.0,27.2,29.93,WSW,244,1.0,0.0,73,0.00,,,0.00,0,WeatherTracker,2013-01-19 06:26:00,
2013-01-19 00:31:00,34.6,27.2,29.93,WSW,244,1.0,0.0,74,0.00,,,0.00,0,WeatherTracker,2013-01-19 06:31:00,
2013-01-19 00:36:00,34.4,27.3,29.93,WSW,244,3.0,0.0,75,0.00,,,0.00,0,WeatherTracker,2013-01-19 06:36:00,
2013-01-19 00:41:00,34.1,27.0,29.92,WSW,244,4.0,0.0,75,0.00,,,0.00,0,WeatherTracker,2013-01-19 06:41:00,
2013-01-19 00:47:00,34.1,27.3,29.92,WSW,244,2.0,0.0,76,0.00,,,0.00,0,WeatherTracker,2013-01-19 06:47:00,
2013-01-19 00:52:00,34.0,27.2,29.92,WSW,244,4.0,0.0,76,0.00,,,0.00,0,WeatherTracker,2013-01-19 06:52:00,
2013-01-19 00:57:00,33.9,27.1,29.92,WSW,244,3.0,0.0,76,0.00,,,0.00,0,WeatherTracker,2013-01-19 06:57:00,
2013-01-19 01:02:00,33.7,27.0,29.92,WSW,244,2.0,0.0,76,0.00,,,0.00,0,WeatherTracker,2013-01-19 07:02:00,
2013-01-19 01:07:00,33.7,27.0,29.92,WSW,242,4.0,0.0,76,0.00,,,0.00,0,WeatherTracker,2013-01-19 07:07:00,
2013-01-19 01:12:00,33.7,27.0,29.92,WSW,245,4.0,0.0,76,0.00,,,0.00,0,WeatherTracker,2013-01-19 07:12:00,
2013-01-19 01:17:00,33.5,26.8,29.92,WSW,246,3.0,0.0,76,0.00,,,0.00,0,WeatherTracker,2013-01-19 07:17:00,
2013-01-19 01:22:00,33.3,26.9,29.92,WSW,246,4.0,0.0,77,0.00,,,0.00,0,WeatherTracker,2013-01-19 07:22:00,
2013-01-19 01:27:00,33.0,26.6,29.92,WSW,246,4.0,0.0,77,0.00,,,0.00,0,WeatherTracker,2013-01-19 07:27:00,
2013-01-19 01:32:00,32.9,26.8,29.92,WSW,246,3.0,0.0,78,0.00,,,0.00,0,WeatherTracker,2013-01-19 07:32:00,
2013-01-19 01:37:00,33.2,26.8,29.92,WSW,246,2.0,0.0,77,0.00,,,0.00,0,WeatherTracker,2013-01-19 07:37:00,
2013-01-19 01:42:00,33.4,27.0,29.92,WSW,247,3.0,0.0,77,0.00,,,0.00,0,WeatherTracker,2013-01-19 07:42:00,
2013-01-19 01:47:00,33.5,26.8,29.92,WSW,243,1.0,0.0,76,0.00,,,0.00,0,WeatherTracker,2013-01-19 07:47:00,
2013-01-19 01:52:00,33.7,27.0,29.91,WSW,244,2.0,0.0,76,0.00,,,0.00,0,WeatherTracker,2013-01-19 07:52:00,
2013-01-19 01:57:00,33.5,26.8,29.92,WSW,244,2.0,0.0,76,0.00,,,0.00,0,WeatherTracker,2013-01-19 07:57:00,
2013-01-19 02:02:00,33.3,26.6,29.92,WSW,244,2.0,0.0,76,0.00,,,0.00,0,WeatherTracker,2013-01-19 08:02:00,
2013-01-19 02:07:00,33.0,26.3,29.93,WSW,244,2.0,0.0,76,0.00,,,0.00,0,WeatherTracker,2013-01-19 08:07:00,
2013-01-19 02:12:00,33.1,26.4,29.93,WSW,244,2.0,0.0,76,0.00,,,0.00,0,WeatherTracker,2013-01-19 08:12:00,
2013-01-19 02:17:00,33.4,26.7,29.92,WSW,244,1.0,0.0,76,0.00,,,0.00,0,WeatherTracker,2013-01-19 08:17:00,
2013-01-19 02:22:00,33.8,26.4,29.93,WSW,245,3.0,0.0,74,0.00,,,0.00,0,WeatherTracker,2013-01-19 08:22:00,
2013-01-19 02:27:00,34.1,26.4,29.93,WSW,245,4.0,0.0,73,0.00,,,0.00,0,WeatherTracker,2013-01-19 08:27:00,
2013-01-19 02:33:00,34.4,26.7,29.93,WSW,249,2.0,0.0,73,0.00,,,0.00,0,WeatherTracker,2013-01-19 08:33:00,
2013-01-19 02:38:00,34.4,26.3,29.93,WSW,250,3.0,0.0,72,0.00,,,0.00,0,WeatherTracker,2013-01-19 08:38:00,
2013-01-19 02:43:00,34.4,26.3,29.93,WSW,252,4.0,0.0,72,0.00,,,0.00,0,WeatherTracker,2013-01-19 08:43:00,
2013-01-19 02:48:00,34.0,26.3,29.93,WSW,252,3.0,0.0,73,0.00,,,0.00,0,WeatherTracker,2013-01-19 08:48:00,
2013-01-19 02:53:00,33.7,26.0,29.94,WSW,256,3.0,0.0,73,0.00,,,0.00,0,WeatherTracker,2013-01-19 08:53:00,
2013-01-19 02:58:00,33.5,26.1,29.93,WSW,256,3.0,0.0,74,0.00,,,0.00,0,WeatherTracker,2013-01-19 08:58:00,
2013-01-19 03:03:00,33.2,25.8,29.93,WSW,256,2.0,0.0,74,0.00,,,0.00,0,WeatherTracker,2013-01-19 09:03:00,
2013-01-19 03:08:00,33.2,25.5,29.93,West,259,3.0,0.0,73,0.00,,,0.00,0,WeatherTracker,2013-01-19 09:08:00,
2013-01-19 03:13:00,33.3,25.6,29.93,West,259,2.0,0.0,73,0.00,,,0.00,0,WeatherTracker,2013-01-19 09:13:00,
2013-01-19 03:18:00,33.0,25.3,29.93,West,259,2.0,0.0,73,0.00,,,0.00,0,WeatherTracker,2013-01-19 09:18:00,
2013-01-19 03:23:00,32.9,25.2,29.93,West,259,2.0,0.0,73,0.00,,,0.00,0,WeatherTracker,2013-01-19 09:23:00,
2013-01-19 03:28:00,32.9,25.2,29.93,West,259,3.0,0.0,73,0.00,,,0.00,0,WeatherTracker,2013-01-19 09:28:00,
2013-01-19 03:33:00,32.8,25.1,29.93,West,259,2.0,0.0,73,0.00,,,0.00,0,WeatherTracker,2013-01-19 09:33:00,
2013-01-19 03:38:00,33.0,25.0,29.93,West,259,3.0,0.0,72,0.00,,,0.00,0,WeatherTracker,2013-01-19 09:38:00,
2013-01-19 03:43:00,33.0,25.0,29.94,West,260,5.0,0.0,72,0.00,,,0.00,0,WeatherTracker,2013-01-19 09:43:00,
2013-01-19 03:48:00,33.2,24.8,29.94,West,264,3.0,0.0,71,0.00,,,0.00,0,WeatherTracker,2013-01-19 09:48:00,
2013-01-19 03:53:00,33.6,24.9,29.94,West,276,5.0,0.0,70,0.00,,,0.00,0,WeatherTracker,2013-01-19 09:53:00,
2013-01-19 03:58:00,33.5,24.8,29.94,WSW,237,3.0,0.0,70,0.00,,,0.00,0,WeatherTracker,2013-01-19 09:58:00,
2013-01-19 04:04:00,33.6,24.9,29.94,WNW,283,3.0,0.0,70,0.00,,,0.00,0,WeatherTracker,2013-01-19 10:04:00,
2013-01-19 04:09:00,34.4,24.6,29.94,West,279,4.0,0.0,67,0.00,,,0.00,0,WeatherTracker,2013-01-19 10:09:00,
2013-01-19 04:14:00,35.2,25.0,29.94,West,267,6.0,0.0,66,0.00,,,0.00,0,WeatherTracker,2013-01-19 10:14:00,
2013-01-19 04:19:00,35.2,25.0,29.94,West,259,4.0,0.0,66,0.00,,,0.00,0,WeatherTracker,2013-01-19 10:19:00,
2013-01-19 04:24:00,35.2,25.0,29.94,WNW,288,5.0,0.0,66,0.00,,,0.00,0,WeatherTracker,2013-01-19 10:24:00,
2013-01-19 04:29:00,35.4,24.8,29.94,West,263,4.0,0.0,65,0.00,,,0.00,0,WeatherTracker,2013-01-19 10:29:00,
2013-01-19 04:34:00,35.7,24.7,29.94,West,279,3.0,0.0,64,0.00,,,0.00,0,WeatherTracker,2013-01-19 10:34:00,
2013-01-19 04:39:00,35.7,24.7,29.94,West,272,4.0,0.0,64,0.00,,,0.00,0,WeatherTracker,2013-01-19 10:39:00,
2013-01-19 04:44:00,35.6,24.6,29.94,West,276,6.0,0.0,64,0.00,,,0.00,0,WeatherTracker,2013-01-19 10:44:00,
2013-01-19 04:49:00,35.5,24.5,29.94,WNW,283,4.0,0.0,64,0.00,,,0.00,0,WeatherTracker,2013-01-19 10:49:00,
2013-01-19 04:54:00,35.7,24.4,29.94,WNW,296,5.0,0.0,63,0.00,,,0.00,0,WeatherTracker,2013-01-19 10:54:00,
2013-01-19 04:59:00,35.7,24.4,29.94,WNW,298,4.0,0.0,63,0.00,,,0.00,0,WeatherTracker,2013-01-19 10:59:00,
2013-01-19 05:04:00,35.7,24.4,29.95,WNW,288,5.0,0.0,63,0.00,,,0.00,0,WeatherTracker,2013-01-19 11:04:00,
2013-01-19 05:09:00,35.7,24.4,29.95,WNW,300,3.0,0.0,63,0.00,,,0.00,0,WeatherTracker,2013-01-19 11:09:00,
2013-01-19 05:14:00,35.7,24.4,29.95,WNW,285,2.0,0.0,63,0.00,,,0.00,0,WeatherTracker,2013-01-19 11:14:00,
2013-01-19 06:47:00,36.9,24.7,29.99,West,280,3.0,0.0,61,0.00,,,0.00,0,WeatherTracker,2013-01-19 12:47:00,
2013-01-19 06:48:00,36.9,24.7,29.98,West,275,8.0,0.0,61,0.00,,,0.00,0,WeatherTracker,2013-01-19 12:48:00,
2013-01-19 06:49:00,36.8,24.6,29.99,WNW,283,5.0,0.0,61,0.00,,,0.00,0,WeatherTracker,2013-01-19 12:49:00,
2013-01-19 06:54:00,36.8,24.6,29.99,NW,325,9.0,0.0,61,0.00,,,0.00,0,WeatherTracker,2013-01-19 12:54:00,
2013-01-19 06:59:00,36.6,24.4,29.99,WNW,283,6.0,0.0,61,0.00,,,0.00,0,WeatherTracker,2013-01-19 12:59:00,
2013-01-19 07:04:00,36.5,24.7,30.00,NW,309,4.0,0.0,62,0.00,,,0.00,0,WeatherTracker,2013-01-19 13:04:00,
2013-01-19 07:09:00,36.3,24.5,30.00,NW,312,5.0,0.0,62,0.00,,,0.00,0,WeatherTracker,2013-01-19 13:09:00,
2013-01-19 07:14:00,36.2,24.5,30.00,WNW,288,7.0,0.0,62,0.00,,,0.00,0,WeatherTracker,2013-01-19 13:14:00,
2013-01-19 07:19:00,36.3,24.5,30.00,NW,319,9.0,0.0,62,0.00,,,0.00,0,WeatherTracker,2013-01-19 13:19:00,
2013-01-19 07:24:00,36.5,24.3,30.01,WNW,302,5.0,0.0,61,0.00,,,0.00,0,WeatherTracker,2013-01-19 13:24:00,
2013-01-19 07:29:00,36.8,24.2,30.01,WNW,299,5.0,0.0,60,0.00,,,0.00,0,WeatherTracker,2013-01-19 13:29:00,
2013-01-19 07:34:00,36.8,24.2,30.01,WNW,291,5.0,0.0,60,0.00,,,0.00,0,WeatherTracker,2013-01-19 13:34:00,
2013-01-19 07:39:00,36.9,24.3,30.02,WNW,290,4.0,0.0,60,0.00,,,0.00,0,WeatherTracker,2013-01-19 13:39:00,
2013-01-19 07:44:00,36.8,24.2,30.02,NW,321,11.0,0.0,60,0.00,,,0.00,0,WeatherTracker,2013-01-19 13:44:00,
2013-01-19 07:49:00,36.6,24.4,30.02,NW,309,3.0,0.0,61,0.00,,,0.00,0,WeatherTracker,2013-01-19 13:49:00,
2013-01-19 07:54:00,36.6,24.4,30.02,WNW,296,3.0,0.0,61,0.00,,,0.00,5,WeatherTracker,2013-01-19 13:54:00,
2013-01-19 07:59:00,36.5,24.3,30.02,NW,306,4.0,0.0,61,0.00,,,0.00,5,WeatherTracker,2013-01-19 13:59:00,
2013-01-19 08:04:00,36.4,24.3,30.03,WNW,284,5.0,0.0,61,0.00,,,0.00,7,WeatherTracker,2013-01-19 14:04:00,
2013-01-19 08:09:00,36.5,24.3,30.03,NW,315,6.0,0.0,61,0.00,,,0.00,9,WeatherTracker,2013-01-19 14:09:00,
2013-01-19 08:14:00,36.6,24.4,30.03,WNW,296,5.0,0.0,61,0.00,,,0.00,11,WeatherTracker,2013-01-19 14:14:00,
2013-01-19 08:19:00,36.4,24.3,30.04,WNW,302,6.0,0.0,61,0.00,,,0.00,14,WeatherTracker,2013-01-19 14:19:00,
2013-01-19 15:38:00,55.0,27.2,30.11,WNW,296,14.0,0.0,34,0.00,,,0.00,287,WeatherTracker,2013-01-19 21:38:00,
2013-01-19 15:43:00,54.9,27.8,30.11,NW,324,6.0,0.0,35,0.00,,,0.00,271,WeatherTracker,2013-01-19 21:43:00,
2013-01-19 15:48:00,55.0,27.9,30.11,NW,304,11.0,0.0,35,0.00,,,0.00,257,WeatherTracker,2013-01-19 21:48:00,
2013-01-19 15:53:00,55.0,27.9,30.11,WNW,303,9.0,0.0,35,0.00,,,0.00,243,WeatherTracker,2013-01-19 21:53:00,
2013-01-19 15:58:00,54.9,27.8,30.12,NW,309,14.0,0.0,35,0.00,,,0.00,223,WeatherTracker,2013-01-19 21:58:00,
2013-01-19 16:03:00,54.9,27.8,30.12,NW,314,2.0,0.0,35,0.00,,,0.00,207,WeatherTracker,2013-01-19 22:03:00,
2013-01-19 16:08:00,54.8,27.7,30.12,NW,310,6.0,0.0,35,0.00,,,0.00,190,WeatherTracker,2013-01-19 22:08:00,
2013-01-19 16:13:00,54.6,27.5,30.12,NW,304,10.0,0.0,35,0.00,,,0.00,174,WeatherTracker,2013-01-19 22:13:00,
2013-01-19 16:18:00,54.4,28.0,30.12,WNW,303,4.0,0.0,36,0.00,,,0.00,158,WeatherTracker,2013-01-19 22:18:00,
2013-01-19 16:23:00,54.2,27.8,30.13,NW,314,4.0,0.0,36,0.00,,,0.00,141,WeatherTracker,2013-01-19 22:23:00,
2013-01-19 16:28:00,54.1,27.7,30.14,NNW,327,1.0,0.0,36,0.00,,,0.00,125,WeatherTracker,2013-01-19 22:28:00,
2013-01-19 16:34:00,53.9,28.2,30.14,NNW,334,6.0,0.0,37,0.00,,,0.00,107,WeatherTracker,2013-01-19 22:34:00,
2013-01-19 16:39:00,53.7,28.1,30.14,NW,325,2.0,0.0,37,0.00,,,0.00,93,WeatherTracker,2013-01-19 22:39:00,
2013-01-19 16:44:00,53.4,27.8,30.14,NW,319,15.0,0.0,37,0.00,,,0.00,81,WeatherTracker,2013-01-19 22:44:00,
2013-01-19 16:49:00,53.0,28.1,30.14,NW,313,4.0,0.0,38,0.00,,,0.00,67,WeatherTracker,2013-01-19 22:49:00,
2013-01-19 16:54:00,52.7,27.8,30.14,NW,310,4.0,0.0,38,0.00,,,0.00,54,WeatherTracker,2013-01-19 22:54:00,
2013-01-19 16:59:00,52.3,28.1,30.14,NW,313,7.0,0.0,39,0.00,,,0.00,44,WeatherTracker,2013-01-19 22:59:00,
2013-01-19 17:04:00,51.9,27.7,30.15,NW,321,5.0,0.0,39,0.00,,,0.00,32,WeatherTracker,2013-01-19 23:04:00,
2013-01-19 17:09:00,51.5,28.0,30.15,NNW,344,4.0,0.0,40,0.00,,,0.00,23,WeatherTracker,2013-01-19 23:09:00,
2013-01-19 17:14:00,51.1,27.6,30.15,NW,314,2.0,0.0,40,0.00,,,0.00,18,WeatherTracker,2013-01-19 23:14:00,
2013-01-19 17:19:00,50.8,28.0,30.16,NNW,348,6.0,0.0,41,0.00,,,0.00,16,WeatherTracker,2013-01-19 23:19:00,
2013-01-19 17:24:00,50.3,28.1,30.16,NW,311,2.0,0.0,42,0.00,,,0.00,12,WeatherTracker,2013-01-19 23:24:00,
2013-01-19 17:30:00,49.8,27.6,30.16,NNW,341,3.0,0.0,42,0.00,,,0.00,11,WeatherTracker,2013-01-19 23:30:00,
2013-01-19 17:35:00,49.2,27.7,30.16,NNW,344,0.0,0.0,43,0.00,,,0.00,7,WeatherTracker,2013-01-19 23:35:00,
2013-01-19 17:40:00,48.7,27.8,30.16,NNW,338,9.0,0.0,44,0.00,,,0.00,5,WeatherTracker,2013-01-19 23:40:00,
2013-01-19 17:45:00,48.1,27.2,30.16,NNW,342,4.0,0.0,44,0.00,,,0.00,0,WeatherTracker,2013-01-19 23:45:00,
2013-01-19 17:50:00,47.7,27.4,30.16,NNE,18,2.0,0.0,45,0.00,,,0.00,0,WeatherTracker,2013-01-19 23:50:00,
2013-01-19 17:55:00,47.2,27.5,30.15,North,5,11.0,0.0,46,0.00,,,0.00,0,WeatherTracker,2013-01-19 23:55:00,
2013-01-19 18:00:00,46.9,27.7,30.16,NNW,344,5.0,0.0,47,0.00,,,0.00,0,WeatherTracker,2013-01-20 00:00:00,
2013-01-19 18:05:00,46.7,27.6,30.15,North,10,9.0,0.0,47,0.00,,,0.00,0,WeatherTracker,2013-01-20 00:05:00,
2013-01-19 18:10:00,46.5,27.4,30.16,North,5,5.0,0.0,47,0.00,,,0.00,0,WeatherTracker,2013-01-20 00:10:00,
2013-01-19 18:15:00,46.3,27.2,30.16,NW,320,6.0,0.0,47,0.00,,,0.00,0,WeatherTracker,2013-01-20 00:15:00,
2013-01-19 18:20:00,46.1,27.0,30.17,NNE,19,3.0,0.0,47,0.00,,,0.00,0,WeatherTracker,2013-01-20 00:20:00,
2013-01-19 18:25:00,45.9,27.3,30.17,North,5,2.0,0.0,48,0.00,,,0.00,0,WeatherTracker,2013-01-20 00:25:00,
2013-01-19 18:31:00,45.7,27.1,30.19,North,9,6.0,0.0,48,0.00,,,0.00,0,WeatherTracker,2013-01-20 00:31:00,
2013-01-19 23:15:00,28.1,20.9,30.30,NE,48,11.0,0.0,74,0.00,,,0.00,0,WeatherTracker,2013-01-20 05:15:00,
2013-01-19 23:20:00,27.9,20.7,30.30,NE,50,5.0,0.0,74,0.00,,,0.00,0,WeatherTracker,2013-01-20 05:20:00,
2013-01-19 23:25:00,27.6,20.7,30.30,NE,44,7.0,0.0,75,0.00,,,0.00,0,WeatherTracker,2013-01-20 05:25:00,
2013-01-19 23:30:00,27.4,20.5,30.31,NE,41,2.0,0.0,75,0.00,,,0.00,0,WeatherTracker,2013-01-20 05:30:00,
2013-01-19 23:35:00,27.2,20.3,30.31,NE,48,1.0,0.0,75,0.00,,,0.00,0,WeatherTracker,2013-01-20 05:35:00,
2013-01-19 23:40:00,26.9,20.4,30.32,North,11,5.0,0.0,76,0.00,,,0.00,0,WeatherTracker,2013-01-20 05:40:00,
2013-01-19 23:46:00,26.6,19.1,30.32,NE,46,4.0,0.0,73,0.00,,,0.00,0,WeatherTracker,2013-01-20 05:46:00,
2013-01-19 23:51:00,26.3,18.8,30.32,NE,51,4.0,0.0,73,0.00,,,0.00,0,WeatherTracker,2013-01-20 05:51:00,
2013-01-19 23:56:00,26.2,18.4,30.32,NE,48,3.0,0.0,72,0.00,,,0.00,0,WeatherTracker,2013-01-20 05:56:00,